• In Österreich
  • Länderverzeichnis
  • Für 7 Tage
  • Wassertemperatur
  • Satellitenkarten
  • Wetterkarte
  • News
  • Widgets
  • user-avatar
    Anmelden

    Stündliche Wetter Batina

    Heute, 19 September, Mittwoch

    Zeit Temperatur Niederschläge Wind Luftdruck Luftfeuchtigkeit
    00:00 +23°C° 0.1 mm 2 m/S 674 mmHg 51%
    01:00 +23°C° 0 mm 2 m/S 674 mmHg 51%
    02:00 +21°C° 0 mm 2 m/S 674 mmHg 52%
    03:00 +21°C° 0 mm 2 m/S 674 mmHg 52%
    04:00 +21°C° 0 mm 2 m/S 674 mmHg 52%
    05:00 +21°C° 0 mm 2 m/S 674 mmHg 52%
    06:00 +22°C° 0 mm 1 m/S 674 mmHg 52%
    07:00 +24°C° 0 mm 2 m/S 675 mmHg 47%
    08:00 +25°C° 0 mm 2 m/S 675 mmHg 42%
    09:00 +27°C° 0 mm 2 m/S 676 mmHg 37%
    10:00 +28°C° 0 mm 3 m/S 676 mmHg 35%
    11:00 +28°C° 0 mm 3 m/S 676 mmHg 32%
    12:00 +29°C° 0 mm 4 m/S 676 mmHg 30%
    13:00 +29°C° 0 mm 4 m/S 675 mmHg 31%
    14:00 +29°C° 0 mm 4 m/S 675 mmHg 31%
    15:00 +29°C° 0 mm 4 m/S 675 mmHg 32%
    16:00 +28°C° 0 mm 3 m/S 675 mmHg 34%
    17:00 +28°C° 0 mm 3 m/S 675 mmHg 37%
    18:00 +27°C° 0 mm 3 m/S 675 mmHg 39%
    19:00 +26°C° 0.4 mm 2 m/S 675 mmHg 44%
    20:00 +25°C° 0.4 mm 2 m/S 675 mmHg 48%
    21:00 +24°C° 0.4 mm 2 m/S 675 mmHg 53%
    22:00 +24°C° 0.1 mm 1 m/S 675 mmHg 55%
    23:00 +23°C° 0.1 mm 1 m/S 674 mmHg 58%

    Morgen, 20 September, Donnerstag

    Zeit Temperatur Niederschläge Wind Luftdruck Luftfeuchtigkeit
    00:00 +23°C° 0.1 mm 1 m/S 674 mmHg 61%
    01:00 +23°C° 0.2 mm 1 m/S 674 mmHg 62%
    02:00 +22°C° 0.2 mm 1 m/S 673 mmHg 64%
    03:00 +22°C° 0.2 mm 1 m/S 673 mmHg 65%
    04:00 +22°C° 0 mm 1 m/S 673 mmHg 65%
    05:00 +22°C° 0 mm 1 m/S 673 mmHg 65%
    06:00 +22°C° 0 mm 1 m/S 673 mmHg 65%
    07:00 +23°C° 0 mm 1 m/S 674 mmHg 60%
    08:00 +24°C° 0 mm 1 m/S 674 mmHg 55%
    09:00 +25°C° 0 mm 2 m/S 674 mmHg 50%
    10:00 +26°C° 0 mm 2 m/S 674 mmHg 46%
    11:00 +27°C° 0 mm 2 m/S 674 mmHg 41%
    12:00 +27°C° 0 mm 3 m/S 674 mmHg 37%
    13:00 +28°C° 0 mm 3 m/S 674 mmHg 36%
    14:00 +28°C° 0 mm 3 m/S 674 mmHg 34%
    15:00 +28°C° 0 mm 3 m/S 673 mmHg 33%
    16:00 +27°C° 0 mm 4 m/S 673 mmHg 37%
    17:00 +26°C° 0 mm 4 m/S 673 mmHg 41%
    18:00 +25°C° 0 mm 4 m/S 673 mmHg 45%
    19:00 +23°C° 0 mm 4 m/S 673 mmHg 51%
    20:00 +24°C° 0 mm 3 m/S 673 mmHg 57%
    21:00 +22°C° 0 mm 3 m/S 673 mmHg 62%
    22:00 +21°C° 0.2 mm 3 m/S 673 mmHg 65%
    23:00 +21°C° 0.2 mm 3 m/S 673 mmHg 67%

    übermorgen, 21 September, Freitag

    Zeit Temperatur Niederschläge Wind Luftdruck Luftfeuchtigkeit
    00:00 +20°C° 0.2 mm 3 m/S 673 mmHg 70%
    01:00 +20°C° 0 mm 2 m/S 672 mmHg 71%
    02:00 +19°C° 0 mm 2 m/S 672 mmHg 73%
    03:00 +19°C° 0 mm 2 m/S 672 mmHg 75%
    04:00 +20°C° 0 mm 1 m/S 672 mmHg 75%
    05:00 +20°C° 0 mm 1 m/S 672 mmHg 76%
    06:00 +20°C° 0 mm 1 m/S 672 mmHg 77%
    07:00 +21°C° 0 mm 1 m/S 673 mmHg 70%
    08:00 +22°C° 0 mm 1 m/S 673 mmHg 64%
    09:00 +23°C° 0 mm 1 m/S 674 mmHg 58%
    10:00 +23°C° 0 mm 1 m/S 674 mmHg 53%
    11:00 +24°C° 0 mm 2 m/S 674 mmHg 48%
    12:00 +25°C° 0 mm 2 m/S 674 mmHg 43%
    13:00 +26°C° 0 mm 2 m/S 674 mmHg 41%
    14:00 +26°C° 0 mm 2 m/S 673 mmHg 38%
    15:00 +26°C° 0 mm 2 m/S 673 mmHg 36%
    16:00 +26°C° 0 mm 3 m/S 673 mmHg 38%
    17:00 +25°C° 0 mm 3 m/S 673 mmHg 40%
    18:00 +25°C° 0 mm 3 m/S 673 mmHg 42%
    19:00 +24°C° 0 mm 3 m/S 673 mmHg 46%
    20:00 +22°C° 0 mm 3 m/S 674 mmHg 50%
    21:00 +23°C° 0 mm 2 m/S 674 mmHg 55%
    22:00 +21°C° 0 mm 2 m/S 674 mmHg 58%
    23:00 +21°C° 0 mm 2 m/S 674 mmHg 60%

    22 September, Samstag

    Zeit Temperatur Niederschläge Wind Luftdruck Luftfeuchtigkeit
    00:00 +20°C° 0 mm 2 m/S 673 mmHg 63%
    01:00 +20°C° 0 mm 2 m/S 673 mmHg 65%
    02:00 +20°C° 0 mm 2 m/S 673 mmHg 66%
    03:00 +19°C° 0 mm 2 m/S 673 mmHg 68%
    04:00 +19°C° 0 mm 2 m/S 673 mmHg 69%
    05:00 +19°C° 0 mm 2 m/S 673 mmHg 69%
    06:00 +19°C° 0 mm 2 m/S 674 mmHg 70%
    07:00 +20°C° 0.1 mm 2 m/S 674 mmHg 65%
    08:00 +21°C° 0.1 mm 2 m/S 675 mmHg 60%
    09:00 +21°C° 0.1 mm 2 m/S 675 mmHg 55%
    10:00 +23°C° 0 mm 2 m/S 675 mmHg 52%
    11:00 +24°C° 0 mm 2 m/S 675 mmHg 49%
    12:00 +24°C° 0 mm 2 m/S 675 mmHg 46%
    13:00 +25°C° 0.1 mm 3 m/S 675 mmHg 45%
    14:00 +25°C° 0.1 mm 3 m/S 675 mmHg 45%
    15:00 +25°C° 0.1 mm 4 m/S 675 mmHg 44%
    16:00 +23°C° 0.1 mm 4 m/S 675 mmHg 48%
    17:00 +23°C° 0.1 mm 4 m/S 675 mmHg 52%
    18:00 +22°C° 0.1 mm 4 m/S 675 mmHg 56%
    19:00 +22°C° 0 mm 4 m/S 675 mmHg 57%
    20:00 +21°C° 0 mm 3 m/S 676 mmHg 59%
    21:00 +21°C° 0 mm 3 m/S 676 mmHg 61%
    22:00 +20°C° 0 mm 3 m/S 676 mmHg 62%
    23:00 +20°C° 0 mm 3 m/S 675 mmHg 64%

    23 September, Sonntag

    Zeit Temperatur Niederschläge Wind Luftdruck Luftfeuchtigkeit
    00:00 +19°C° 0 mm 3 m/S 675 mmHg 65%
    01:00 +19°C° 0 mm 2 m/S 675 mmHg 66%
    02:00 +19°C° 0 mm 2 m/S 675 mmHg 66%
    03:00 +18°C° 0 mm 2 m/S 675 mmHg 67%
    04:00 +18°C° 0 mm 2 m/S 675 mmHg 65%
    05:00 +18°C° 0 mm 2 m/S 675 mmHg 63%
    06:00 +18°C° 0 mm 2 m/S 675 mmHg 61%
    07:00 +20°C° 0 mm 2 m/S 675 mmHg 56%
    08:00 +21°C° 0 mm 2 m/S 676 mmHg 50%
    09:00 +23°C° 0 mm 2 m/S 676 mmHg 44%
    10:00 +24°C° 0 mm 2 m/S 676 mmHg 41%
    11:00 +25°C° 0 mm 2 m/S 676 mmHg 39%
    12:00 +26°C° 0 mm 1 m/S 676 mmHg 36%
    13:00 +26°C° 0 mm 2 m/S 676 mmHg 35%
    14:00 +26°C° 0 mm 2 m/S 676 mmHg 34%
    15:00 +27°C° 0 mm 2 m/S 676 mmHg 33%
    16:00 +26°C° 0 mm 2 m/S 675 mmHg 34%
    17:00 +26°C° 0 mm 2 m/S 675 mmHg 36%
    18:00 +26°C° 0 mm 2 m/S 675 mmHg 37%
    19:00 +25°C° 0 mm 1 m/S 675 mmHg 40%
    20:00 +24°C° 0 mm 1 m/S 675 mmHg 43%
    21:00 +24°C° 0 mm 1 m/S 675 mmHg 46%
    22:00 +23°C° 0 mm 1 m/S 675 mmHg 48%
    23:00 +23°C° 0 mm 1 m/S 675 mmHg 50%

    24 September, Montag

    Zeit Temperatur Niederschläge Wind Luftdruck Luftfeuchtigkeit
    00:00 +20°C° 0 mm 0 m/S 674 mmHg 52%
    01:00 +22°C° 0 mm 1 m/S 674 mmHg 52%
    02:00 +22°C° 0 mm 1 m/S 674 mmHg 52%
    03:00 +21°C° 0 mm 1 m/S 673 mmHg 53%
    04:00 +21°C° 0 mm 1 m/S 673 mmHg 53%
    05:00 +21°C° 0 mm 1 m/S 674 mmHg 53%
    06:00 +21°C° 0 mm 1 m/S 674 mmHg 53%
    07:00 +23°C° 0 mm 1 m/S 674 mmHg 48%
    08:00 +24°C° 0 mm 2 m/S 675 mmHg 42%
    09:00 +25°C° 0 mm 2 m/S 675 mmHg 36%
    10:00 +26°C° 0 mm 2 m/S 675 mmHg 34%
    11:00 +27°C° 0 mm 2 m/S 675 mmHg 31%
    12:00 +28°C° 0 mm 3 m/S 675 mmHg 29%
    13:00 +28°C° 0 mm 3 m/S 675 mmHg 28%
    14:00 +28°C° 0 mm 3 m/S 675 mmHg 28%
    15:00 +29°C° 0 mm 4 m/S 674 mmHg 27%
    16:00 +28°C° 0 mm 4 m/S 674 mmHg 32%
    17:00 +27°C° 0 mm 4 m/S 674 mmHg 37%
    18:00 +26°C° 0 mm 4 m/S 674 mmHg 42%
    19:00 +25°C° 0 mm 4 m/S 674 mmHg 49%
    20:00 +24°C° 0 mm 3 m/S 674 mmHg 57%
    21:00 +22°C° 0 mm 3 m/S 674 mmHg 64%
    22:00 +21°C° 0 mm 3 m/S 674 mmHg 68%
    23:00 +20°C° 0 mm 3 m/S 674 mmHg 71%
    Mehr zeigen